CZ-6A DEB, 61127

Orbit data source: Space-Track

CZ-6A DEB, 61127 is space debris in LEO originally from a launch on Tue, 06 Aug 2024 UTC launched from the Taiyaun Space Center, China (TSC). Debris objects in space refer to the collection of defunct objects orbiting the Earth. Examples of debris include non-operational satellites, rocket bodies, and fragments generated from explosions, collisions, or faulty payload assembly.

Loading next visibility...
Identifier
61127, 2024-140PV
Orbit
LEO
Country
Flag of CNCN / PRC
Related business
Manufacturer
SAST
Mission
Spacecraft
Bus & Motor
Unknown
Mass
Unknown
Launch date (UTC)
2024-08-06 (2 years ago)
Launch vehicle
Unknown
Launch site
Taiyaun Space Center, China (TSC)
Object type
Payload
Rocket body
Debris
Shape & HBR
Unknown shape, 0.1 m
Radar Cross Section
Small (<0.1 m²)

Expand to show TLE details & history
Last TLE update: 7 hours ago

TLE from 7 hours ago
0 CZ-6A DEB
1 61127U 24140PV  26118.73808521  .00002947  00000-0  67332-3 0  9996
2 61127  89.0446 280.3874 0091066  81.4580 279.6935 14.52942175 89198
Epoch: 2026-04-28T17:42Z
TLE epoch observation values (Epoch: 2026-04-28T17:42:50.562Z)
Latitude
-0.00001°
Longitude
157.96763°
Altitude
708.849 km
Speed
7.507 km/s
True Right ascension
18h 41m 32s
True Declination
0° 00' 00"
Sunlit
Object was in daylight at epoch
Visualization orbit readout
Latitude
Unknown
Longitude
Unknown
Altitude
Unknown
Speed
Unknown
Apparent Right ascension
Unknown
Apparent Declination
Unknown
Sunlit
N/A
Visualization observer readout
Local Sidereal Time
08:22:07
Azimuth
Unknown
Elevation
Unknown
Doppler factor
Unknown
Orbital elements
Apogee altitude
777.535 km
Perigee altitude
648.383 km
Semi-major axis
7,091.096 km
Eccentricity
0.00911
Inclination
89.0446°
RAAN
280.3874°
Arg. of periapsis
81.458°
True anomaly
278.66294°
Mean anomaly
279.6935°
Eccentric anomaly
279.17841°
Mean motion
3.63474 °/min
Orbital period
99.04 mins
BSTAR
0.00067332
Loading maneuver chart data...
Computing Atmospheric mass density...
Loading historical data...
Loading historical data...
Loading historical data...
Loading historical data...
Loading historical data...
Loading historical data...
Loading historical data...

Documentation

Showing up to 5 results
|